| time (UTC) | temp F | wind direction | speed MPH | gust MPH | rain 1hr in | rain 24hr in | rain mn in | humidity % | barometer mb |
| 20260504010041 | 51 | 230 | 6.0 | 11.0 | 0.00 | 0.11 | 0.10 | 45 | 1012.1 |
| 20260504004548 | 52 | 234 | 8.0 | 12.0 | 0.01 | 0.11 | 0.10 | 44 | 1012.0 |
| 20260504003046 | 52 | 223 | 6.0 | 11.0 | 0.01 | 0.11 | 0.10 | 44 | 1011.9 |
| 20260504001558 | 52 | 216 | 6.0 | 11.0 | 0.01 | 0.11 | 0.10 | 44 | 1012.0 |
| 20260504000048 | 53 | 245 | 4.0 | 10.0 | 0.01 | 0.11 | 0.10 | 43 | 1012.0 |
| 20260503234541 | 54 | 267 | 5.0 | 12.0 | 0.00 | 0.11 | 0.09 | 42 | 1011.9 |
| 20260503233045 | 54 | 244 | 8.0 | 13.0 | 0.00 | 0.11 | 0.09 | 40 | 1011.9 |
| 20260503231543 | 55 | 208 | 7.0 | 13.0 | 0.00 | 0.11 | 0.09 | 40 | 1012.0 |
| 20260503230043 | 55 | 209 | 8.0 | 19.0 | 0.00 | 0.11 | 0.09 | 40 | 1011.9 |
| 20260503224545 | 55 | 228 | 8.0 | 18.0 | 0.00 | 0.12 | 0.09 | 39 | 1011.9 |
| 20260503223042 | 55 | 235 | 10.0 | 18.0 | 0.01 | 0.12 | 0.09 | 38 | 1011.9 |
| 20260503221549 | 55 | 204 | 5.0 | 11.0 | 0.01 | 0.12 | 0.09 | 39 | 1011.9 |
| 20260503220040 | 56 | 252 | 10.0 | 19.0 | 0.01 | 0.12 | 0.09 | 38 | 1011.9 |
| 20260503214544 | 56 | 275 | 5.0 | 15.0 | 0.01 | 0.12 | 0.09 | 39 | 1012.0 |
| 20260503213043 | 56 | 209 | 6.0 | 13.0 | 0.00 | 0.11 | 0.08 | 39 | 1011.9 |
| 20260503211542 | 55 | 215 | 10.0 | 17.0 | 0.00 | 0.11 | 0.08 | 38 | 1011.9 |
| 20260503210050 | 54 | 249 | 8.0 | 16.0 | 0.00 | 0.11 | 0.08 | 40 | 1011.9 |
| 20260503204550 | 55 | 228 | 6.0 | 15.0 | 0.00 | 0.12 | 0.08 | 40 | 1012.1 |
| 20260503203038 | 54 | 290 | 8.0 | 17.0 | 0.01 | 0.12 | 0.08 | 40 | 1012.0 |
| 20260503201546 | 55 | 306 | 6.0 | 17.0 | 0.01 | 0.12 | 0.08 | 38 | 1012.1 |
| 20260503200046 | 55 | 297 | 8.0 | 15.0 | 0.01 | 0.12 | 0.08 | 39 | 1012.3 |
| 20260503194605 | 54 | 300 | 3.0 | 15.0 | 0.01 | 0.12 | 0.08 | 44 | 1012.7 |
| 20260503193039 | 54 | 275 | 6.0 | 15.0 | 0.00 | 0.11 | 0.07 | 42 | 1012.9 |
| 20260503191546 | 54 | 283 | 4.0 | 15.0 | 0.00 | 0.11 | 0.07 | 42 | 1013.1 |
| 20260503190052 | 54 | 246 | 8.0 | 14.0 | 0.00 | 0.11 | 0.07 | 42 | 1013.3 |
| 20260503184544 | 54 | 290 | 9.0 | 18.0 | 0.01 | 0.12 | 0.07 | 42 | 1013.3 |
| 20260503183059 | 54 | 274 | 7.0 | 12.0 | 0.01 | 0.12 | 0.07 | 40 | 1013.6 |
| 20260503181547 | 53 | 213 | 8.0 | 16.0 | 0.01 | 0.12 | 0.07 | 41 | 1013.7 |
| 20260503180058 | 53 | 227 | 6.0 | 18.0 | 0.01 | 0.12 | 0.07 | 44 | 1013.8 |
| 20260503174544 | 52 | 207 | 10.0 | 19.0 | 0.00 | 0.12 | 0.06 | 42 | 1013.8 |
| 20260503173108 | 52 | 273 | 7.0 | 18.0 | 0.00 | 0.12 | 0.06 | 46 | 1014.0 |
| 20260503171549 | 51 | 286 | 8.0 | 19.0 | 0.00 | 0.12 | 0.06 | 44 | 1014.2 |
| 20260503081551 | 32 | 272 | 2.0 | 4.0 | 0.00 | 0.13 | 0.02 | 82 | 1014.2 |
| 20260503071546 | 33 | 272 | 3.0 | 6.0 | 0.01 | 0.13 | 0.02 | 79 | 1014.0 |
| 20260503054543 | 34 | 286 | 2.0 | 3.0 | 0.00 | 0.14 | 0.01 | 76 | 1014.2 |
| 20260503053050 | 35 | 288 | 2.0 | 4.0 | 0.00 | 0.14 | 0.01 | 75 | 1014.3 |
| 20260503051548 | 35 | 281 | 3.0 | 4.0 | 0.00 | 0.14 | 0.01 | 75 | 1014.4 |
| 20260503050047 | 35 | 293 | 3.0 | 8.0 | 0.01 | 0.14 | 0.01 | 74 | 1014.4 |
| 20260503044545 | 35 | 292 | 2.0 | 7.0 | 0.01 | 0.14 | 0.01 | 75 | 1014.5 |
| 20260503043046 | 36 | 289 | 2.0 | 3.0 | 0.01 | 0.14 | 0.01 | 74 | 1014.5 |
| 20260503041544 | 36 | 287 | 2.0 | 3.0 | 0.01 | 0.14 | 0.01 | 74 | 1014.5 |
| 20260503040049 | 36 | 282 | 2.0 | 3.0 | 0.00 | 0.13 | 0.00 | 74 | 1014.6 |
| 20260503034548 | 36 | 282 | 2.0 | 4.0 | 0.00 | 0.14 | 0.13 | 73 | 1014.6 |
| 20260503033034 | 36 | 295 | 2.0 | 3.0 | 0.00 | 0.14 | 0.13 | 72 | 1014.6 |
| 20260503031554 | 36 | 309 | 2.0 | 6.0 | 0.00 | 0.14 | 0.13 | 71 | 1014.6 |
| 20260503030047 | 37 | 278 | 3.0 | 5.0 | 0.00 | 0.14 | 0.13 | 70 | 1014.7 |
| 20260503024549 | 37 | 257 | 3.0 | 7.0 | 0.01 | 0.15 | 0.13 | 70 | 1014.9 |
| 20260503023050 | 37 | 282 | 3.0 | 4.0 | 0.01 | 0.15 | 0.13 | 70 | 1014.9 |
| 20260503021540 | 37 | 294 | 3.0 | 7.0 | 0.01 | 0.15 | 0.13 | 70 | 1014.8 |
| 20260503020035 | 37 | 274 | 2.0 | 5.0 | 0.01 | 0.15 | 0.13 | 70 | 1014.7 |
| 20260503014544 | 37 | 275 | 2.0 | 4.0 | 0.00 | 0.14 | 0.12 | 69 | 1014.7 |
| 20260503013044 | 38 | 279 | 3.0 | 5.0 | 0.00 | 0.14 | 0.12 | 68 | 1014.6 |
| 20260503011547 | 38 | 299 | 3.0 | 9.0 | 0.00 | 0.14 | 0.12 | 67 | 1014.6 |